Flag for Cameroon Weather past 2 weeks in Bamenda, Cameroon

Now
82 °F

Scattered clouds.


Feels Like: 88 °F
Forecast: 64 / 78 °F
Wind: 6 mph from Southwest

Location: Douala Obs.

Current Time: Aug 23, 2014 at 4:40:42 PM

Latest Report: Aug 23, 2014 at 4:00 PM


Visibility: N/A

Pressure: 29.86 "Hg

Humidity: 74%

Dew point: 73 °F

Location of BamendaLocation

Historic Weather in Bamenda — Graph

°F

Bamenda temperature yesterday

Maximum temperature yesterday: 81 °F (at 3:00 PM)
Minimum temperature yesterday: 73 °F (at 12:00 AM)
Average temperature yesterday: 76 °F

Past Weeks' High & Low Weather Summary

 TemperatureHumidityPressure
High86 °F (Aug 10, 2:00 PM)100% (Aug 8, 8:00 PM)30.04 "Hg (Aug 8, 8:00 PM)
Low73 °F (Aug 12, 9:00 AM)70% (Aug 9, 1:00 PM)29.86 "Hg (Aug 11, 5:00 PM)
Average77 °F92%29.94 "Hg
* Reported Aug 8 3:00 PM — Aug 23 3:00 PM, Bamenda, Weather by CustomWeather, © 2014

Note: Actual official high and low records may vary slightly from our data, if they occured in-between our weather recording intervals... More about our weather records

Advertising

Bamenda weather history for previous 24 hours

 ConditionsComfort  
Time TempWeatherWind HumidityBarometerVisibility
3:00 PM
Aug 23
82 °FPartly sunny.7 mph79%29.89 "HgN/A
2:00 PM82 °FPartly sunny.No wind74%29.95 "HgN/A
1:00 PM84 °FPartly sunny.No wind70%29.95 "HgN/A
12:00 PM82 °FPartly sunny.No wind74%29.98 "HgN/A
11:00 AM82 °FPartly sunny.No wind74%30.01 "HgN/A
10:00 AM79 °FPartly sunny.No wind84%30.01 "HgN/A
9:00 AM77 °FPartly sunny.No wind94%30.01 "HgN/A
8:00 AM75 °FPartly sunny.No wind94%29.98 "HgN/A
7:00 AM73 °FPartly sunny.No wind100%29.95 "Hg4 mi
6:00 AM73 °FPassing clouds.No wind100%29.95 "Hg5 mi
5:00 AM73 °FPassing clouds.No wind100%29.92 "Hg5 mi
4:00 AM73 °FPassing clouds.No wind100%29.92 "Hg5 mi
3:00 AM73 °FLight rain. Passing clouds.No wind100%29.95 "Hg4 mi
2:00 AM75 °FPassing clouds.No wind94%29.95 "HgN/A
1:00 AM75 °FPassing clouds.No wind94%29.98 "HgN/A
12:00 AM75 °FLight rain. Overcast.No wind94%29.98 "Hg4 mi
11:00 PM
Aug 22
75 °FPassing clouds.No wind94%29.98 "HgN/A
10:00 PM77 °FLight rain. Mostly cloudy.No wind89%29.98 "HgN/A
9:00 PM77 °FMostly cloudy.No wind94%29.95 "HgN/A
8:00 PM77 °FPassing clouds.No wind94%29.92 "HgN/A
7:00 PM77 °FPassing clouds.No wind94%29.92 "HgN/A
6:00 PM77 °FPartly sunny.7 mph94%29.89 "HgN/A
5:00 PM79 °FPartly sunny.7 mph84%29.89 "HgN/A
4:00 PM81 °FPartly sunny.7 mph79%29.89 "HgN/A
Weather by CustomWeather, © 2014

See weather overviewHow to use our weather pages